Regional Weather Roundup
Issued by NWS

Home | Current Version | Previous Version | Text Only | Print | Product List | Glossary Off
Versions: 1 2 3 4 5 6 7 8 9 10 11 12 13 14 15 16 17 18 19 20 21 22 23 24 25 26 27 28 29 30 31 32 33 34 35 36 37 38 39 40 41 42 43 44 45 46 47 48 49 50

000
ASUS43 KLMK 210710
RWRKY
KENTUCKY REGIONAL WEATHER ROUNDUP
NATIONAL WEATHER SERVICE LOUISVILLE KY
200 AM EST SUN JAN 21 2018

NOTE "FAIR" INDICATES FEW OR NO CLOUDS BELOW 12,000 FEET
WITH NO SIGNIFICANT WEATHER AND/OR OBSTRUCTIONS TO VISIBILITY.

KYZ001>023-026-027-061>063-070>075-210800-
WESTERN AND SOUTH CENTRAL KENTUCKY

CITY           SKY/WX    TMP DP  RH WIND       PRES   REMARKS
PADUCAH        FAIR      50  41  71 S6        30.05F
HENDERSON      CLOUDY    47  42  83 S5        30.06F
OWENSBORO      CLOUDY    45  41  86 S9        30.08F
HOPKINSVILLE   FAIR      53  38  58 S6        30.10S
BOWLING GREEN  CLOUDY    52  40  63 S7        30.13F
GLASGOW        CLOUDY    51  37  58 S6        30.14F
$$

KYZ024-025-028>034-038-045-046-053-210800-
NORTH CENTRAL KENTUCKY

CITY           SKY/WX    TMP DP  RH WIND       PRES   REMARKS
LOUISVILLE/SDF CLOUDY    54  41  61 S6        30.10S
LOUISVILLE/LOU CLOUDY    51  41  68 S5        30.11F
FORT KNOX      CLOUDY    49  41  74 S7        30.09S
$$

KYZ035>037-039>044-047>052-055>060-089>105-210800-
NORTHEAST KENTUCKY

CITY           SKY/WX    TMP DP  RH WIND       PRES   REMARKS
LEXINGTON      MOCLDY    50  37  61 S9        30.14S
COVINGTON      CLOUDY    47  43  86 SW6       30.09S
FRANKFORT      CLOUDY    51  37  58 SW10      30.11S
$$

KYZ054-064>069-076>088-106>120-210800-
SOUTHEAST KENTUCKY

CITY           SKY/WX    TMP DP  RH WIND       PRES   REMARKS
JACKSON        FAIR      46  34  62 SW3       30.16S
LONDON         CLOUDY    44  34  67 CALM      30.18S
SOMERSET       CLOUDY    45  32  61 CALM      30.20R
MIDDLESBORO    CLOUDY    37  34  90 CALM      30.21F
MONTICELLO     CLOUDY    46  37  71 NW8       30.20R
$$





USA.gov is the U.S. government's official web portal to all federal, state and local government web resources and services.